Regional Weather Roundup
Issued by NWS

Home | Current Version | Previous Version | Graphics & Text | Print | Product List | Glossary On
Versions: 1 2 3 4 5 6 7 8 9 10 11 12 13 14 15 16 17 18 19 20 21 22 23 24 25 26 27 28 29 30 31 32 33 34 35 36 37 38 39 40 41 42 43 44 45 46 47 48 49 50
000
ASUS43 KLOT 280010
RWRIL

ILLINOIS REGIONAL WEATHER ROUNDUP
NATIONAL WEATHER SERVICE CHICAGO/ROMEOVILLE IL
700 PM CDT SUN JUL 27 2014

NOTE: "FAIR" INDICATES FEW OR NO CLOUDS BELOW 12,000 FEET WITH NO
SIGNIFICANT WEATHER AND/OR OBSTRUCTIONS TO VISIBILITY.

* THESE STATIONS ARE NOT UNDER NWS QUALITY CONTROL. THEY ALSO MAY NOT
  REPORT WEATHER SUCH AS PRECIPITATION OR FOG.

ILZ001-002-007-009-015-016-024-280100-
NORTHWEST ILLINOIS

CITY           SKY/WX    TMP DP  RH WIND       PRES   REMARKS
MOLINE         CLOUDY    74  58  57 NW18G25   29.91R
6HR MIN TEMP:  74; 6HR MAX TEMP:  82;

STERLING*      MOSUNNY   75  59  57 NW16G22   29.87R
SAVANNA*       PTSUNNY   76  55  47 NW16G24   29.88R
$$

ILZ003-004-008-010-011-017-018-280100-
NORTH CENTRAL ILLINOIS

CITY           SKY/WX    TMP DP  RH WIND       PRES   REMARKS
ROCKFORD       PTSUNNY   75  55  49 NW18G33   29.85R
6HR MIN TEMP:  74; 6HR MAX TEMP:  82;

FREEPORT*      MOSUNNY   71  58  62 NW13G21   29.89R
ROCHELLE*      PTSUNNY   74  56  54 W15       29.85R
DE KALB*       LGT RAIN  68  59  73 NW12G25   29.84R
PERU*          SUNNY     75  57  53 NW22G31   29.86R
$$

ILZ005-006-012>014-019>023-280100-
NORTHEAST ILLINOIS

CITY           SKY/WX    TMP DP  RH WIND       PRES   REMARKS
CHICAGO-OHARE  MOSUNNY   75  54  47 NW15G24   29.80R
6HR MIN TEMP:  75; 6HR MAX TEMP:  87;

CHICAGO-MIDWAY MOSUNNY   77  55  46 NW22G30   29.78R
6HR MIN TEMP:  77; 6HR MAX TEMP:  89;

AURORA         PTSUNNY   74  56  53 NW16G25   29.82R
6HR MIN TEMP:  74; 6HR MAX TEMP:  84;

LANSING*       MOSUNNY   77  54  44 NW17G25   29.78R
JOLIET*        SUNNY     75  54  48 NW8G20    29.83R
WAUKEGAN       MOSUNNY   74  56  53 NW7G20    29.78R
6HR MIN TEMP:  72; 6HR MAX TEMP:  83; 6HR PCP: TRACE;

DUPAGE AIRPORT PTSUNNY   74  56  53 NW21G26   29.82R
6HR MIN TEMP:  73; 6HR MAX TEMP:  85;

KANKAKEE*      MOSUNNY   76  58  53 NW10G20   29.81R
WHEELING       MOSUNNY   75  57  53 NW16G25   29.80R
6HR MIN TEMP:  75; 6HR MAX TEMP:  87; 6HR PCP: TRACE;

MORRIS*        SUNNY     76  58  54 NW15G23   29.82R
ROMEOVILLE*    SUNNY     74  54  49 NW12G28   29.81R
NORTHERLY ISL    N/A     76  53  44 W15         N/A
$$

LMZ740>746-280100-
SOUTHERN LAKE MICHIGAN

STATION/POSITION SKY/WX   TEMP    WIND        PRES    VSBY  WAVE
                          AIR SEA DIR/SP/G                  HT/PER
                          (F)     (DEG/KT/KT) (MB)    (MI)  (FT/S)
SOUTHERN BUOY              63 62  310/ 14/ 17 1008.1R         2/ 4
WAUKEGAN HARBOR            74     310/ 14/ 20   N/A
HARRISON CRIB              74     310/ 18/ 21   N/A
BURNHAM HARBOR             75     300/ 16/ 20   N/A
CALUMET HARBOR             76     290/ 10/ 19 1007.2R
BURNS HARBOR               71     340/ 15/ 18 1008.5S
MICHIGAN CITY              69     310/ 17/ 19   N/A
MICHIGAN CITY 6N           70 69  320/ 10/ 14   N/A           4/ 4
ST. JOSEPH                 66 65  330/ 12/ 19   N/A           4/ 4
$$

ILZ025>027-034>036-040-047-049-050-058-095>099-280100-
WEST-CENTRAL ILLINOIS

CITY           SKY/WX    TMP DP  RH WIND       PRES   REMARKS
QUINCY         SUNNY     75  57  53 NW14G24   29.98R
GALESBURG*     PTSUNNY   74  59  59 NW14G22   29.93R
MACOMB*        SUNNY     73  59  61 NW15G21   29.97R
JACKSONVILLE*  SUNNY     77  60  54 NW12      29.96R
PITTSFIELD*    SUNNY     78  58  51 NW15G22   29.98R
$$

ILZ028>032-037-038-041>044-048-051>054-059>061-280100-
CENTRAL ILLINOIS

CITY           SKY/WX    TMP DP  RH WIND       PRES   REMARKS
PONTIAC        SUNNY     77  57  50 NW15G23   29.85R
DECATUR        SUNNY     78  57  48 NW17G30   29.90R
PEORIA         MOSUNNY   78  57  48 NW15G25   29.90R
6HR MIN TEMP:  78; 6HR MAX TEMP:  85;

LACON*         MOSUNNY   75  57  53 NW10G17   29.87R
LINCOLN*       MOSUNNY   77  58  51 NW7       29.87R
SPRINGFIELD    MOSUNNY   78  58  49 NW14G22   29.92R
6HR MIN TEMP:  78; 6HR MAX TEMP:  87;

TAYLORVILLE    MOSUNNY   77  59  53 NW20G26   29.92R
$$

ILZ033-039-045-046-055>057-062-063-280100-
EAST-CENTRAL ILLINOIS

CITY           SKY/WX    TMP DP  RH WIND       PRES   REMARKS
CHAMPAIGN      MOSUNNY   75  60  59 NW18G28   29.87R
DANVILLE*      RAIN      75  61  61 NW10      29.81R
RANTOUL*       MOSUNNY   77  57  50 NW14      29.87R
MATTOON        MOSUNNY   78  60  53 NW22G32   29.86R
PARIS*         MOSUNNY   78  62  58 NW12G26   29.85R
$$

ILZ079-100>102-280100-
SOUTHWEST ILLINOIS

CITY           SKY/WX    TMP DP  RH WIND       PRES   REMARKS
ALTON          MOSUNNY   81  59  47 NW16      29.92R HX  81
BELLEVILLE     SUNNY     85  59  41 W14G21    29.90R HX  85
CAHOKIA*       SUNNY     88  56  33 NW20G28   29.91R HX  86
SPARTA*        SUNNY     86  54  32 NW13G22   29.90R HX  84
$$

ILZ064>066-069>071-074>076-080>082-084>086-088>090-092>094-280100-
SOUTH-CENTRAL ILLINOIS

CITY           SKY/WX    TMP DP  RH WIND       PRES   REMARKS
CARBONDALE     MOSUNNY   86  66  51 W8        29.87S HX  88
6HR MIN TEMP:  86; 6HR MAX TEMP:  92;

CAIRO*         MOSUNNY   88  71  57 W7        29.87R HX  93
EFFINGHAM*     MOSUNNY   81  54  39 NW16G22   29.88R HX  80
MARION         MOSUNNY   88  64  45 W3        29.87S HX  89
MT. VERNON     SUNNY     84  61  45 N5        29.88R HX  84
CENTRALIA*     SUNNY     86  55  35 NW14      29.89R HX  84
SALEM*         SUNNY    N/A N/A N/A NW15G24   29.89R
METROPOLIS*    PTSUNNY   87  63  44 NW7       29.86R HX  88
$$

ILZ067-068-072-073-078-083-087-091-280100-
SOUTHEAST ILLINOIS

CITY           SKY/WX    TMP DP  RH WIND       PRES   REMARKS
LAWRENCEVILLE  SUNNY     83  61  47 NW20G29   29.84R HX  83
FLORA*         SUNNY     82  56  40 NW16G22   29.87R HX  82
FAIRFIELD*     SUNNY     84  64  51 NW8       29.86R HX  86
HARRISBURG*    MOSUNNY   86  68  54 W9        29.86S HX  89
ROBINSON*      SUNNY     82  60  47 NW16G24   29.85R HX  83
CARMI*         MOSUNNY   86  70  58 W10       29.84R HX  90
$$

ABBREVIATIONS USED IN REMARKS
   TC - TEMPERATURE IN CELSIUS
  WCI - WIND CHILL INDEX
   HX - HEAT INDEX
  VSB - VISIBILITY
$$



USA.gov is the U.S. government's official web portal to all federal, state and local government web resources and services.